Zurück zum Katalog

STARLINK-5950

AktivKommunikationVLEO
NORAD 56913·PAYLOAD·🇺🇸 United States

Gestartet Jun 12, 2023 von Cape Canaveral Space Force Station

Loading…

Nächste Überflüge (nächste 24 Stunden)

TLE

AktuellSource: CelesTrak SupGP

Epoche: Sep 15, 2026, 02:32 UTC

1 56913C 23083AP  26258.10604167 -.00020289  00000+0 -73479-3 0  2581
2 56913  43.0019  80.8163 0001177 259.8528 276.6803 15.27593104    14

Verfolge STARLINK-5950 in Echtzeit mit AllMySat

Download on the App Store